EW2167 Weather Reports


Display with metric or nautical units.
time (UTC)temp
F
wind
direction
speed
MPH
gust
MPH
rain 1hr
in
rain 24hr
in
rain mn
in
humidity
%
barometer
mb
20260904091538 74 0 0.0 1.0 0.00 0.00 0.00 93 1015.6
20260904090045 75 0 0.0 0.0 0.00 0.00 0.00 93 1015.7
20260904084538 75 0 0.0 1.0 0.00 0.00 0.00 92 1015.6
20260904083106 74 0 0.0 0.0 0.00 0.00 0.00 93 1015.8
20260904081537 74 0 0.0 1.0 0.00 0.00 0.00 93 1015.7
20260904080037 74 0 0.0 1.0 0.00 0.00 0.00 92 1015.7
20260904074534 75 0 0.0 1.0 0.00 0.00 0.00 92 1015.7
20260904073038 75 0 0.0 0.0 0.00 0.00 0.00 92 1015.7
20260904071550 75 0 0.0 1.0 0.00 0.00 0.00 92 1015.8
20260904070106 75 0 0.0 1.0 0.00 0.00 0.00 91 1015.9
20260904064537 76 0 0.0 0.0 0.00 0.00 0.00 91 1016.1
20260904063043 75 0 0.0 0.0 0.00 0.00 0.00 91 1016.0
20260904061539 75 0 0.0 0.0 0.00 0.00 0.00 91 1016.1
20260904060036 76 0 0.0 0.0 0.00 0.00 0.00 91 1016.1
20260904054547 76 0 0.0 0.0 0.00 0.00 0.00 91 1016.2
20260904053051 76 0 0.0 1.0 0.00 0.00 0.00 91 1016.3
20260904051541 76 0 0.0 0.0 0.00 0.00 0.00 90 1016.3
20260904050040 77 0 0.0 0.0 0.00 0.00 0.00 89 1016.3
20260904044538 77 0 0.0 0.0 0.00 0.00 0.00 89 1016.4
20260904043044 77 0 0.0 0.0 0.00 0.00 0.00 89 1016.3
20260904041538 77 0 0.0 0.0 0.00 0.00 0.00 88 1016.3
20260904040050 77 0 0.0 0.0 0.00 0.00 0.00 88 1016.2
20260904034536 77 0 0.0 0.0 0.00 0.00 0.00 87 1016.3
20260904033038 77 0 0.0 0.0 0.00 0.00 0.00 86 1016.2
20260904031552 77 0 0.0 0.0 0.00 0.00 0.00 86 1016.2
20260904030036 78 0 0.0 0.0 0.00 0.00 0.00 85 1016.2
20260904024538 78 0 0.0 0.0 0.00 0.00 0.00 87 1016.2
20260904023035 79 0 0.0 0.0 0.00 0.00 0.00 85 1016.4
20260904021536 79 0 0.0 0.0 0.00 0.00 0.00 86 1016.3
20260904020040 80 0 0.0 0.0 0.00 0.00 0.00 86 1016.3
20260904014538 80 0 0.0 0.0 0.00 0.00 0.00 85 1016.4
20260904013043 80 0 0.0 0.0 0.00 0.00 0.00 85 1016.4
20260904011544 80 0 0.0 0.0 0.00 0.00 0.00 84 1016.3
20260904010037 81 0 0.0 0.0 0.00 0.00 0.00 82 1016.1
20260904004536 81 0 0.0 0.0 0.00 0.00 0.00 84 1016.1
20260904003041 82 0 0.0 0.0 0.00 0.00 0.00 82 1015.7
20260904001534 83 0 0.0 0.0 0.00 0.00 0.00 82 1015.6
20260904000041 84 0 0.0 0.0 0.00 0.00 0.00 80 1015.5
20260903234539 85 0 0.0 0.0 0.00 0.00 0.00 78 1015.5
20260903233036 87 0 0.0 0.0 0.00 0.00 0.00 73 1015.4
20260903231543 88 0 0.0 0.0 0.00 0.00 0.00 68 1015.3
20260903230045 90 0 0.0 1.0 0.00 0.00 0.00 65 1015.4
20260903224537 91 0 0.0 4.0 0.00 0.00 0.00 63 1015.3
20260903223037 92 242 1.0 6.0 0.00 0.00 0.00 62 1015.3
20260903221539 92 223 2.0 8.0 0.00 0.00 0.00 60 1015.3
20260903220036 93 221 4.0 8.0 0.00 0.00 0.00 58 1015.1
20260903214538 93 250 1.0 6.0 0.00 0.00 0.00 59 1015.0
20260903213045 93 239 2.0 8.0 0.00 0.00 0.00 61 1015.1
20260903211536 94 199 2.0 8.0 0.00 0.00 0.00 59 1015.1
20260903210043 93 217 3.0 9.0 0.00 0.00 0.00 60 1015.3
20260903204535 94 240 2.0 8.0 0.00 0.00 0.00 58 1015.5
20260903203036 94 217 2.0 8.0 0.00 0.00 0.00 60 1015.8
20260903201538 94 228 2.0 8.0 0.00 0.00 0.00 58 1015.7
20260903200035 94 239 1.0 7.0 0.00 0.00 0.00 59 1016.0
20260903194535 94 0 2.0 7.0 0.00 0.00 0.00 58 1016.2
20260903193038 94 223 0.0 8.0 0.00 0.00 0.00 59 1016.3
20260903191538 94 196 4.0 12.0 0.00 0.00 0.00 57 1016.5
20260903190036 94 234 2.0 9.0 0.00 0.00 0.00 59 1016.7
20260903184537 93 205 2.0 12.0 0.00 0.00 0.00 58 1016.6
20260903183036 94 244 0.0 8.0 0.00 0.00 0.00 63 1016.6
20260903181536 93 229 3.0 11.0 0.00 0.00 0.00 59 1016.7
20260903180040 93 0 0.0 8.0 0.00 0.00 0.00 59 1016.8
20260903174540 92 0 3.0 11.0 0.00 0.00 0.00 59 1016.9
20260903173037 93 236 2.0 10.0 0.00 0.00 0.00 60 1017.2
20260903171537 92 218 3.0 10.0 0.00 0.00 0.00 62 1017.3
20260903170049 93 266 1.0 10.0 0.00 0.00 0.00 61 1017.4
20260903164538 92 229 3.0 9.0 0.00 0.00 0.00 61 1017.6
20260903163036 92 227 1.0 7.0 0.00 0.00 0.00 64 1017.8
20260903161539 91 242 2.0 9.0 0.00 0.00 0.00 64 1017.9
20260903160037 90 216 1.0 8.0 0.00 0.00 0.00 67 1017.8
20260903154544 90 0 1.0 5.0 0.00 0.00 0.00 64 1017.9
20260903153046 89 238 3.0 10.0 0.00 0.00 0.00 66 1017.8
20260903151540 88 236 3.0 8.0 0.00 0.00 0.00 68 1017.9
20260903150043 88 0 3.0 8.0 0.00 0.00 0.00 69 1017.8
20260903144538 88 234 2.0 7.0 0.00 0.00 0.00 70 1017.8
20260903143048 87 238 1.0 4.0 0.00 0.00 0.00 73 1017.8
20260903141542 85 225 0.0 3.0 0.00 0.00 0.00 75 1017.8
20260903140040 84 223 0.0 4.0 0.00 0.00 0.00 76 1017.7
20260903134536 83 0 0.0 3.0 0.00 0.00 0.00 80 1017.8
20260903133037 81 217 0.0 3.0 0.00 0.00 0.00 82 1017.9
20260903131538 80 0 0.0 3.0 0.00 0.00 0.00 83 1018.0
20260903130036 78 0 0.0 2.0 0.00 0.00 0.00 85 1018.1
20260903124536 77 0 0.0 2.0 0.00 0.00 0.00 88 1018.1
20260903123035 75 0 0.0 1.0 0.00 0.00 0.00 92 1018.2
20260903121534 74 0 0.0 1.0 0.00 0.00 0.00 94 1018.3
20260903120044 72 0 0.0 0.0 0.00 0.00 0.00 95 1018.1
20260903114536 72 0 0.0 0.0 0.00 0.00 0.00 95 1018.0
20260903113036 72 0 0.0 0.0 0.00 0.00 0.00 95 1017.9
20260903111546 72 0 0.0 0.0 0.00 0.00 0.00 95 1017.7
20260903110036 72 0 0.0 0.0 0.00 0.00 0.00 95 1017.6
20260903104545 72 0 0.0 0.0 0.00 0.00 0.00 95 1017.4
20260903103051 72 0 0.0 0.0 0.00 0.00 0.00 94 1017.4
20260903101541 72 0 0.0 1.0 0.00 0.00 0.00 94 1017.3
20260903100036 72 0 0.0 0.0 0.00 0.00 0.00 94 1017.5
20260903094537 73 0 0.0 1.0 0.00 0.00 0.00 94 1017.4
20260903093047 72 0 0.0 0.0 0.00 0.00 0.00 94 1017.4